TJS-3

Last updated on Sat Jul 05 2025 00:02:47 GMT+0000 (Coordinated Universal Time)

1 43874U 18110A 25185.71986753 .00000070 00000+0 00000+0 0 9999 2 43874 1.6472 84.7850 0002317 357.4661 158.8276 1.00271177 23991
UTC large
Height (km)
Speed (km/s)
/
Latitude / Longitude
Inclination (degrees)
Orbital Period (minutes)
Azimuth
Elevation
Range (km)
Doppler Factor

Next 0 passes for location: London (51.5072 / 0.1276)

Sorry there are no passes over London.